Location: Unspecified
(0.0000°N, 0.0000°E)
Time: 17:47:31
(UTC+00:00)

STARLINK 1065 - Pass Details

Date: 21 January 2020
Orbit: 548 x 551 km, 53.0° (Epoch: 17 January)

Event Time Altitude Azimuth Distance (km) Brightness Sun altitude
Rises 05:35:35 0° 225° (SW) 2,711 6.9 -8.3°
Reaches altitude 10° 05:37:54 10° 231° (SW) 1,816 6.0 -7.8°
Maximum altitude 05:41:50 44° 304° (NW) 764 3.9 -6.9°
Drops below altitude 10° 05:45:45 10° 17° (NNE) 1,808 6.2 -6.0°
Sets 05:48:03 0° 23° (NNE) 2,697 7.2 -5.4°
